FENGYUN 1C DEB

Satellite information

Favourite Embed

Satellite Type and Status

DEBRISIN ORBIT

Key statistics

Satellite FENGYUN 1C DEB at a glance.

Uptime

9661

Days in orbit

Revolutions

≈ 14.2

Per day

Orbit

SSO

Sun Synchronous Orbit

Inclination

98.9

Latest

Satellite identification and parameters

Extended collection of information and parameters for FENGYUN 1C DEB.

Object identification

Identified? True

Debris? True

Object name: FENGYUN 1C DEB

International designator: 1999-025DAA

Object number (NORAD): 32414

Object ID (CCSDS): 32414

Country: PEOPLES REPUBLIC OF CHINA (PRC)

Current information (Y/N): Y

RCS size: SMALL

Orbital parameters

Period: 101.565 minutes

Inclination: 98.8624 deg

SMA: 7210.918 km

Apoapsis: 867.188 km

Periapsis: 798.378 km

RAAN: 344.2249 deg

Eccentricy: 0.00477122

Argument of periapsis: 205.6449 deg

Mean anomaly: 154.2359 deg

Mean motion: 14.17806464 rev/day

Mean motion (dot): 0.00005399 rev/day2

B* drag term: 0.0026365474 1/REarth

Two-line elements (TLE)

Creation date: Sept. 30, 2025, 5:43 p.m.

Reference frame: TEME

Reference center: EARTH

Epoch: Sept. 30, 2025, 10:04 a.m. UTC

TLE line 0: 0 FENGYUN 1C DEB

TLE line 1: 1 32414U 99025DAA 25273.42002782 .00005399 00000-0 26365-2 0 9993

TLE line 2: 2 32414 98.8624 344.2249 0047712 205.6449 154.2359 14.17806464926931

Live tracking on map

Real-time ground track for satellite FENGYUN 1C DEB.

In-orbit conjunctions

A list of the most updated potential collisions computed for object FENGYUN 1C DEB.

Target Orbit TCA Probability of collision Miss distance Type
DELTA 1 DEB SSO 2024-11-15 02:05:47 0.0001154927 495.0 (m) DEBRIS
FENGYUN 1C DEB SSO 2024-11-13 15:29:28 0.0003683614 506.0 (m) DEBRIS
SL-24 R/B SSO 2024-09-07 13:44:37 0.001717357 184.0 (m) ROCKET BODY
COSMOS 1275 DEB LEO 2024-06-05 01:46:02 0.0001356469 86.0 (m) DEBRIS

Associated space launch

Chinese polar orbiting meteorological satellite

FENGYUN 1C DEB was lifted into orbit during the mission ‘Long March 4B | Feng Yun 1C’, on board a Long March 4B space rocket.

The launch took place on May 10, 1999, 1:33 a.m. from Launch Complex 7.

For more information about the launch, click the button.

Launch to space Long March 4B | Feng Yun 1C
Long March 4B | Feng Yun 1C

Agency: N/A

Status: Launch Successful

Launch date: May 10, 1999, 1:33 a.m. UTC

Rocket: Long March 4B

Launch pad: Launch Complex 7

Location: Taiyuan Satellite Launch Center, People's Republic of China

...

Latest news about this satellite

There are no fresh news available about this satellite. Check back as we update our databases every day.


Newsletter sign-up

Weekly statistics, charts and insights to help you stay on top of the space industry.